| time (UTC) | temp F | wind direction | speed MPH | gust MPH | rain 1hr in | rain 24hr in | rain mn in | humidity % | barometer mb |
| 20260505031307 | 68 | 168 | 1.0 | 3.0 | 0.00 | 0.00 | 0.00 | 69 | 1009.6 |
| 20260505030807 | 68 | 197 | 3.0 | 7.0 | 0.00 | 0.00 | 0.00 | 68 | 1009.5 |
| 20260505030308 | 69 | 213 | 2.0 | 5.0 | 0.00 | 0.00 | 0.00 | 68 | 1009.5 |
| 20260505025807 | 69 | 230 | 2.0 | 9.0 | 0.00 | 0.00 | 0.00 | 68 | 1009.4 |
| 20260505025307 | 69 | 195 | 2.0 | 6.0 | 0.00 | 0.00 | 0.00 | 68 | 1009.3 |
| 20260505024807 | 69 | 158 | 2.0 | 7.0 | 0.00 | 0.00 | 0.00 | 67 | 1009.2 |
| 20260505024308 | 70 | 226 | 2.0 | 6.0 | 0.00 | 0.00 | 0.00 | 67 | 1009.2 |
| 20260505023807 | 70 | 226 | 3.0 | 8.0 | 0.00 | 0.00 | 0.00 | 67 | 1009.1 |
| 20260505023307 | 71 | 220 | 5.0 | 10.0 | 0.00 | 0.00 | 0.00 | 66 | 1009.1 |
| 20260505022308 | 71 | 237 | 3.0 | 6.0 | 0.00 | 0.00 | 0.00 | 66 | 1009.0 |
| 20260505021807 | 71 | 175 | 5.0 | 10.0 | 0.00 | 0.00 | 0.00 | 66 | 1009.0 |
| 20260505021307 | 72 | 199 | 3.0 | 10.0 | 0.00 | 0.00 | 0.00 | 66 | 1008.9 |
| 20260505020807 | 72 | 199 | 3.0 | 12.0 | 0.00 | 0.00 | 0.00 | 66 | 1008.9 |
| 20260505020307 | 72 | 158 | 2.0 | 5.0 | 0.00 | 0.00 | 0.00 | 65 | 1009.0 |
| 20260505015307 | 72 | 185 | 5.0 | 10.0 | 0.00 | 0.00 | 0.00 | 65 | 1009.0 |
| 20260505014807 | 72 | 173 | 3.0 | 13.0 | 0.00 | 0.00 | 0.00 | 65 | 1009.0 |
| 20260505014307 | 72 | 168 | 5.0 | 9.0 | 0.00 | 0.00 | 0.00 | 64 | 1009.0 |
| 20260505013807 | 72 | 231 | 3.0 | 9.0 | 0.00 | 0.00 | 0.00 | 64 | 1009.1 |
| 20260505013307 | 73 | 208 | 5.0 | 12.0 | 0.00 | 0.00 | 0.00 | 64 | 1009.1 |
| 20260505012807 | 73 | 224 | 5.0 | 9.0 | 0.00 | 0.00 | 0.00 | 65 | 1009.2 |
| 20260505012307 | 73 | 157 | 4.0 | 7.0 | 0.00 | 0.00 | 0.00 | 64 | 1009.2 |
| 20260505011807 | 73 | 222 | 3.0 | 9.0 | 0.00 | 0.00 | 0.00 | 64 | 1009.3 |
| 20260505011307 | 73 | 156 | 3.0 | 7.0 | 0.00 | 0.00 | 0.00 | 65 | 1009.4 |
| 20260505010807 | 72 | 189 | 3.0 | 10.0 | 0.00 | 0.00 | 0.00 | 65 | 1009.4 |
| 20260505010307 | 72 | 183 | 6.0 | 12.0 | 0.00 | 0.00 | 0.00 | 65 | 1009.5 |
| 20260505005807 | 72 | 192 | 7.0 | 12.0 | 0.00 | 0.00 | 0.00 | 64 | 1009.5 |
| 20260505005306 | 72 | 169 | 3.0 | 8.0 | 0.00 | 0.00 | 0.00 | 65 | 1009.5 |
| 20260505004807 | 72 | 165 | 5.0 | 9.0 | 0.00 | 0.00 | 0.00 | 65 | 1009.5 |
| 20260505004307 | 72 | 180 | 6.0 | 10.0 | 0.00 | 0.00 | 0.00 | 64 | 1009.5 |
| 20260505003807 | 73 | 188 | 3.0 | 8.0 | 0.00 | 0.00 | 0.00 | 64 | 1009.4 |
| 20260505003307 | 72 | 158 | 5.0 | 10.0 | 0.00 | 0.00 | 0.00 | 64 | 1009.4 |
| 20260505002807 | 72 | 139 | 4.0 | 9.0 | 0.00 | 0.00 | 0.00 | 65 | 1009.5 |
| 20260505002307 | 72 | 166 | 7.0 | 13.0 | 0.00 | 0.00 | 0.00 | 64 | 1009.6 |
| 20260505000807 | 72 | 135 | 3.0 | 15.0 | 0.00 | 0.00 | 0.00 | 64 | 1009.7 |
| 20260504235806 | 72 | 194 | 6.0 | 12.0 | 0.00 | 0.00 | 0.00 | 64 | 1009.8 |
| 20260504235307 | 72 | 195 | 3.0 | 12.0 | 0.00 | 0.00 | 0.00 | 64 | 1009.7 |
| 20260504234807 | 73 | 183 | 5.0 | 10.0 | 0.00 | 0.00 | 0.00 | 63 | 1009.8 |
| 20260504234306 | 72 | 160 | 3.0 | 10.0 | 0.00 | 0.00 | 0.00 | 64 | 1009.8 |
| 20260504233807 | 72 | 181 | 5.0 | 12.0 | 0.00 | 0.00 | 0.00 | 64 | 1009.9 |
| 20260504233307 | 72 | 173 | 6.0 | 12.0 | 0.00 | 0.00 | 0.00 | 63 | 1010.0 |
| 20260504232806 | 72 | 174 | 3.0 | 12.0 | 0.00 | 0.00 | 0.00 | 65 | 1010.1 |
| 20260504232306 | 72 | 162 | 6.0 | 10.0 | 0.00 | 0.00 | 0.00 | 64 | 1010.0 |
| 20260504231807 | 72 | 238 | 3.0 | 12.0 | 0.00 | 0.00 | 0.00 | 65 | 1010.0 |
| 20260504231307 | 72 | 178 | 5.0 | 13.0 | 0.00 | 0.00 | 0.00 | 64 | 1010.1 |
| 20260504230807 | 71 | 158 | 7.0 | 12.0 | 0.00 | 0.00 | 0.00 | 64 | 1010.1 |
| 20260504230307 | 72 | 150 | 6.0 | 12.0 | 0.00 | 0.00 | 0.00 | 64 | 1010.1 |
| 20260504225807 | 71 | 248 | 5.0 | 12.0 | 0.00 | 0.00 | 0.00 | 64 | 1010.2 |
| 20260504224807 | 71 | 201 | 5.0 | 9.0 | 0.00 | 0.00 | 0.00 | 64 | 1010.3 |
| 20260504224307 | 71 | 157 | 5.0 | 10.0 | 0.00 | 0.00 | 0.00 | 64 | 1010.4 |
| 20260504222307 | 71 | 193 | 4.0 | 12.0 | 0.00 | 0.00 | 0.00 | 64 | 1010.6 |
| 20260504221807 | 70 | 168 | 6.0 | 13.0 | 0.00 | 0.00 | 0.00 | 64 | 1010.7 |
| 20260504221306 | 70 | 118 | 4.0 | 10.0 | 0.00 | 0.00 | 0.00 | 65 | 1010.7 |
| 20260504220807 | 70 | 134 | 5.0 | 8.0 | 0.00 | 0.00 | 0.00 | 65 | 1010.8 |
| 20260504220306 | 70 | 226 | 4.0 | 7.0 | 0.00 | 0.00 | 0.00 | 66 | 1010.8 |
| 20260504215807 | 69 | 180 | 7.0 | 12.0 | 0.00 | 0.00 | 0.00 | 66 | 1010.8 |
| 20260504214806 | 69 | 133 | 5.0 | 12.0 | 0.00 | 0.00 | 0.00 | 65 | 1010.9 |
| 20260504214307 | 69 | 158 | 3.0 | 12.0 | 0.00 | 0.00 | 0.00 | 66 | 1011.0 |
| 20260504213806 | 68 | 144 | 4.0 | 12.0 | 0.00 | 0.00 | 0.00 | 67 | 1011.0 |
| 20260504212807 | 68 | 188 | 3.0 | 7.0 | 0.00 | 0.00 | 0.00 | 66 | 1011.1 |
| 20260504212307 | 68 | 196 | 4.0 | 8.0 | 0.00 | 0.00 | 0.00 | 67 | 1011.2 |
| 20260504211807 | 67 | 148 | 6.0 | 10.0 | 0.00 | 0.00 | 0.00 | 68 | 1011.3 |
| 20260504211307 | 67 | 198 | 6.0 | 9.0 | 0.00 | 0.00 | 0.00 | 67 | 1011.5 |
| 20260504210806 | 67 | 188 | 4.0 | 10.0 | 0.00 | 0.00 | 0.00 | 69 | 1011.5 |
| 20260504210307 | 67 | 292 | 3.0 | 8.0 | 0.00 | 0.00 | 0.00 | 69 | 1011.7 |
| 20260504205307 | 66 | 206 | 4.0 | 9.0 | 0.00 | 0.00 | 0.00 | 69 | 1011.8 |
| 20260504204806 | 66 | 211 | 6.0 | 9.0 | 0.00 | 0.00 | 0.00 | 70 | 1011.9 |
| 20260504204307 | 65 | 156 | 4.0 | 9.0 | 0.00 | 0.00 | 0.00 | 70 | 1011.9 |
| 20260504203307 | 65 | 178 | 2.0 | 7.0 | 0.00 | 0.00 | 0.00 | 71 | 1012.0 |
| 20260504202807 | 64 | 196 | 4.0 | 10.0 | 0.00 | 0.00 | 0.00 | 72 | 1012.1 |
| 20260504201806 | 65 | 242 | 4.0 | 9.0 | 0.00 | 0.00 | 0.00 | 71 | 1012.1 |
| 20260504201306 | 63 | 194 | 5.0 | 12.0 | 0.00 | 0.00 | 0.00 | 72 | 1012.2 |
| 20260504200806 | 63 | 189 | 3.0 | 7.0 | 0.00 | 0.00 | 0.00 | 75 | 1012.2 |
| 20260504194307 | 62 | 193 | 3.0 | 9.0 | 0.00 | 0.00 | 0.00 | 76 | 1012.4 |
| 20260504193806 | 61 | 217 | 3.0 | 8.0 | 0.00 | 0.00 | 0.00 | 76 | 1012.3 |
| 20260504193306 | 61 | 202 | 3.0 | 8.0 | 0.00 | 0.00 | 0.00 | 76 | 1012.4 |
| 20260504192807 | 61 | 235 | 3.0 | 9.0 | 0.00 | 0.00 | 0.00 | 77 | 1012.5 |
| 20260504192307 | 60 | 229 | 3.0 | 8.0 | 0.00 | 0.00 | 0.00 | 77 | 1012.5 |
| 20260504191806 | 60 | 192 | 1.0 | 7.0 | 0.00 | 0.00 | 0.00 | 78 | 1012.5 |
| 20260504190306 | 60 | 191 | 2.0 | 12.0 | 0.00 | 0.00 | 0.00 | 79 | 1012.5 |
| 20260504185306 | 60 | 262 | 1.0 | 3.0 | 0.00 | 0.00 | 0.00 | 79 | 1012.6 |
| 20260504184307 | 59 | 224 | 3.0 | 7.0 | 0.00 | 0.00 | 0.00 | 80 | 1012.7 |
| 20260504183807 | 59 | 177 | 5.0 | 10.0 | 0.00 | 0.00 | 0.00 | 80 | 1012.7 |
| 20260504182806 | 58 | 153 | 6.0 | 10.0 | 0.00 | 0.00 | 0.00 | 80 | 1012.7 |
| 20260504182306 | 58 | 234 | 3.0 | 8.0 | 0.00 | 0.00 | 0.00 | 80 | 1012.7 |
| 20260504181807 | 58 | 230 | 5.0 | 12.0 | 0.00 | 0.00 | 0.00 | 81 | 1012.6 |
| 20260504181306 | 58 | 181 | 3.0 | 12.0 | 0.00 | 0.00 | 0.00 | 80 | 1012.6 |
| 20260504180807 | 58 | 185 | 4.0 | 8.0 | 0.00 | 0.00 | 0.00 | 81 | 1012.7 |
| 20260504180306 | 58 | 231 | 4.0 | 8.0 | 0.00 | 0.00 | 0.00 | 81 | 1012.7 |
| 20260504175807 | 58 | 199 | 2.0 | 7.0 | 0.00 | 0.00 | 0.00 | 81 | 1012.8 |
| 20260504175306 | 58 | 196 | 1.0 | 5.0 | 0.00 | 0.00 | 0.00 | 82 | 1012.7 |
| 20260504174806 | 58 | 189 | 3.0 | 8.0 | 0.00 | 0.00 | 0.00 | 82 | 1012.7 |
| 20260504174306 | 58 | 152 | 4.0 | 7.0 | 0.00 | 0.00 | 0.00 | 81 | 1012.6 |
| 20260504173806 | 58 | 199 | 3.0 | 6.0 | 0.00 | 0.00 | 0.00 | 82 | 1012.6 |
| 20260504173306 | 57 | 162 | 4.0 | 10.0 | 0.00 | 0.00 | 0.00 | 82 | 1012.7 |
| 20260504172806 | 57 | 164 | 6.0 | 12.0 | 0.00 | 0.00 | 0.00 | 82 | 1012.6 |
| 20260504172306 | 57 | 148 | 3.0 | 10.0 | 0.00 | 0.00 | 0.00 | 82 | 1012.7 |
| 20260504171807 | 57 | 152 | 5.0 | 9.0 | 0.00 | 0.00 | 0.00 | 82 | 1012.7 |
| 20260504170806 | 57 | 200 | 4.0 | 12.0 | 0.00 | 0.00 | 0.00 | 83 | 1012.6 |
| 20260504160306 | 55 | 180 | 4.0 | 10.0 | 0.00 | 0.00 | 0.00 | 86 | 1012.5 |
| 20260504150806 | 55 | 197 | 3.0 | 6.0 | 0.00 | 0.00 | 0.00 | 87 | 1012.2 |
| 20260504141305 | 53 | 166 | 3.0 | 10.0 | 0.00 | 0.00 | 0.00 | 90 | 1011.6 |
| 20260504140805 | 53 | 166 | 5.0 | 12.0 | 0.00 | 0.00 | 0.00 | 90 | 1011.5 |
| 20260504140306 | 53 | 221 | 5.0 | 12.0 | 0.00 | 0.00 | 0.00 | 90 | 1011.4 |
| 20260504130806 | 53 | 170 | 4.0 | 9.0 | 0.00 | 0.00 | 0.00 | 89 | 1010.6 |
| 20260504130305 | 53 | 179 | 3.0 | 9.0 | 0.00 | 0.00 | 0.00 | 89 | 1010.3 |
| 20260504120306 | 54 | 191 | 5.0 | 10.0 | 0.00 | 0.00 | 0.00 | 87 | 1009.4 |
| 20260504110305 | 56 | 194 | 6.0 | 12.0 | 0.00 | 0.00 | 0.00 | 82 | 1008.8 |
| 20260504100305 | 59 | 167 | 6.0 | 12.0 | 0.00 | 0.00 | 0.00 | 77 | 1008.1 |
| 20260504081305 | 65 | 148 | 3.0 | 3.0 | 0.00 | 0.00 | 0.00 | 63 | 1007.2 |
| 20260504080805 | 65 | 152 | 2.0 | 3.0 | 0.00 | 0.00 | 0.00 | 64 | 1007.1 |
| 20260504070305 | 71 | 238 | 1.0 | 2.0 | 0.00 | 0.00 | 0.00 | 52 | 1006.8 |
| 20260504050305 | 75 | 260 | 1.0 | 3.0 | 0.00 | 0.00 | 0.00 | 46 | 1006.2 |
| 20260504045805 | 75 | 260 | 1.0 | 3.0 | 0.00 | 0.00 | 0.00 | 45 | 1006.2 |
| 20260504044804 | 76 | 261 | 1.0 | 2.0 | 0.00 | 0.00 | 0.00 | 45 | 1006.1 |
| 20260504044305 | 76 | 261 | 1.0 | 3.0 | 0.00 | 0.00 | 0.00 | 44 | 1006.1 |
| 20260504043805 | 77 | 261 | 2.0 | 3.0 | 0.00 | 0.00 | 0.00 | 42 | 1006.1 |
| 20260504043305 | 78 | 261 | 1.0 | 2.0 | 0.00 | 0.00 | 0.00 | 41 | 1006.1 |
| 20260504042805 | 79 | 302 | 1.0 | 2.0 | 0.00 | 0.00 | 0.00 | 40 | 1006.0 |
| 20260504042305 | 79 | 302 | 2.0 | 3.0 | 0.00 | 0.00 | 0.00 | 39 | 1005.9 |
| 20260504041805 | 79 | 315 | 1.0 | 3.0 | 0.00 | 0.00 | 0.00 | 39 | 1005.9 |
| 20260504041305 | 80 | 285 | 1.0 | 3.0 | 0.00 | 0.00 | 0.00 | 38 | 1005.9 |
| 20260504040805 | 80 | 284 | 1.0 | 2.0 | 0.00 | 0.00 | 0.00 | 39 | 1005.7 |
| 20260504040305 | 80 | 283 | 2.0 | 3.0 | 0.00 | 0.00 | 0.00 | 38 | 1005.7 |
| 20260504034805 | 81 | 329 | 0.0 | 2.0 | 0.00 | 0.00 | 0.00 | 37 | 1005.4 |
| 20260504034305 | 82 | 328 | 1.0 | 2.0 | 0.00 | 0.00 | 0.00 | 36 | 1005.4 |
| 20260504033804 | 82 | 331 | 1.0 | 3.0 | 0.00 | 0.00 | 0.00 | 35 | 1005.3 |
| 20260504033304 | 83 | 331 | 2.0 | 5.0 | 0.00 | 0.00 | 0.00 | 35 | 1005.3 |
| 20260504032804 | 83 | 9 | 1.0 | 3.0 | 0.00 | 0.00 | 0.00 | 35 | 1005.3 |
| 20260504032304 | 84 | 6 | 2.0 | 3.0 | 0.00 | 0.00 | 0.00 | 33 | 1005.3 |